Hourly Weather Roundup
Issued by NWS Central Illinois

Home | Current Version | Previous Version | Text Only | Print | Product List | Glossary On
Versions: 1 2 3 4 5 6 7 8 9 10 11 12 13 14 15 16 17 18 19 20 21 22 23 24 25 26 27 28 29 30 31 32 33 34 35 36 37 38 39 40 41 42 43 44 45 46 47 48 49 50
000
NZUS43 KILX 250410
HWRILX

AREA WEATHER ROUNDUP
NATIONAL WEATHER SERVICE, LINCOLN IL
1100 PM CDT FRI OCT 24 2014


CITY           SKY/WX    TMP DP  RH WIND       PRES   REMARKS
BLOOMINGTON    CLOUDY    58  55  89 S8        29.99F
CHAMPAIGN      CLOUDY    56  54  93 S8        30.01F
DECATUR        CLOUDY    60  54  80 S8        30.00S
FLORA          PTCLDY    55  51  89 S6        30.03S
GALESBURG      MOCLDY    56  51  82 SW6       29.95S
JACKSONVILLE   CLOUDY    64  51  64 S6        29.97F
LACON          CLOUDY    59  51  73 CALM      29.94F
LAWRENCEVILLE  PTCLDY    50  49  96 S6        30.04S
LITCHFIELD     MOCLDY    54  48  78 S6        30.00S
$$


CITY           SKY/WX    TMP DP  RH WIND       PRES   REMARKS
LINCOLN        CLOUDY    58  54  84 S6        29.96F
MACOMB         MOCLDY    52  49  92 CALM      29.98F
MATTOON        CLOUDY    59  52  77 S8        30.01R
MT CARMEL AP   CLEAR     52  50  93 CALM      30.04S
OLNEY-NOBLE AP PTCLDY    54  50  87 CALM      30.03F
PARIS          MOCLDY    48  47  99 CALM      30.02S FOG
PEORIA         CLOUDY    62  51  67 S8        29.96F
PONTIAC        MOCLDY    60  55  84 S10       29.96F
RANTOUL        CLOUDY    55  53  92 S3        29.99F FOG
ROBINSON       PTCLDY    50  49  97 S3        30.04S
SPRINGFIELD    CLOUDY    62  50  64 S5        29.99R
TAYLORVILLE    MOCLDY    55  50  82 S7        30.00S
$$

...REGIONAL REPORTS...


CITY           SKY/WX    TMP DP  RH WIND       PRES   REMARKS
CHICAGO O`HARE CLOUDY    61  47  59 SW8       29.93F
KANKAKEE       CLOUDY    58  54  87 SW9       29.97S
MOLINE         MOCLDY    58  55  90 CALM      29.94F FOG
MOUNT VERNON   PTCLDY    52  46  82 CALM      30.04F
PITTSFIELD     PTCLDY    63  55  77 SW5       29.99R
QUINCY         PTCLDY    62  57  83 SW8       29.96F
ROCKFORD       CLOUDY    59  48  67 SW6       29.96R
$$


CITY           SKY/WX    TMP DP  RH WIND       PRES   REMARKS
BURLINGTON     MOCLDY    56  55  97 CALM      29.95F
CEDAR RAPIDS   FOG       53  53 100 SW5       29.94S VSB 1/2
DES MOINES     FOG       55  54  96 W3        29.97R VSB 1/4
KIRKSVILLE     MOCLDY    62  59  90 SW5       29.98S
OTTUMWA        FOG       51  50  96 SW3       29.95F VSB 1/4
ST LOUIS       MOCLDY    65  51  60 SW5       30.00S
$$


CITY           SKY/WX    TMP DP  RH WIND       PRES   REMARKS
TERRE HAUTE    PTCLDY    49  47  93 CALM      30.03S
EVANSVILLE     CLEAR     53  50  89 W3        30.06F
INDIANAPOLIS   PTCLDY    52  48  86 SW7       30.02S
LAFAYETTE      CLOUDY    51  50  96 SW3       30.00F
MADISON        MOCLDY    55  50  83 CALM      29.90F
MILWAUKEE      CLOUDY    56  50  80 S7        29.91F
$$





USA.gov is the U.S. government's official web portal to all federal, state and local government web resources and services.